[Iaude] MPEC V87: 2016 VK3 [a=1.20,e=0.11,i=17.7,H=24.8]

mpec at si.edu mpec at si.edu
Wed Nov 9 13:21:36 EST 2016


M.P.E.C. 2016-V87                                Issued 2016 Nov.  9, 18:17 UT
 
     The Minor Planet Electronic Circulars contain information on unusual
         minor planets and routine data on comets.  They are published
    on behalf of Division F of the International Astronomical Union by the
          Minor Planet Center, Smithsonian Astrophysical Observatory,
                          Cambridge, MA 02138, U.S.A.

             Prepared using the Tamkin Foundation Computer Network

                              MPC at CFA.HARVARD.EDU
            URL http://www.minorplanetcenter.net/    ISSN 1523-6714


                                   2016 VK3
 
Observations:
     K16V03K* C2016 11 07.21400 01 55 47.26 +19 49 00.5          19.4 VqEV087G96
     K16V03K  C2016 11 07.21827 01 55 48.15 +19 48 03.7          18.8 VqEV087G96
     K16V03K  C2016 11 07.22256 01 55 49.07 +19 47 05.3          19.8 VqEV087G96
     K16V03K  C2016 11 07.33266 01 56 11.47 +19 22 22.1          19.7 VqEV087G96
     K16V03K  C2016 11 07.33307 01 56 11.61 +19 22 16.1          19.9 VqEV087G96
     K16V03K  C2016 11 07.33349 01 56 11.69 +19 22 10.6          20.3 VqEV087G96
     K16V03K KC2016 11 07.80318 01 58 12.08 +17 36 11.8          19.9 RqEV087587
     K16V03K KC2016 11 07.81212 01 58 14.01 +17 34 11.9                qEV087587
     K16V03K KC2016 11 07.94673 01 58 43.10 +17 03 50.7                qEV087J95
     K16V03K KC2016 11 07.95067 01 58 43.89 +17 02 57.6                qEV087J95
     K16V03K KC2016 11 07.95420 01 58 44.61 +17 02 10.2          19.5 RqEV087J95
     K16V03K  C2016 11 08.29807 02 00 05.01 +15 45 21.6          20.4 RoEV087926
     K16V03K  C2016 11 08.30015 02 00 05.42 +15 44 52.8          20.2 RoEV087926
     K16V03K  C2016 11 08.30223 02 00 05.84 +15 44 24.0          20.6 RoEV087926
     K16V03K  C2016 11 09.24698 02 03 49.11 +12 12 24.7          20.3 RoEV087926
     K16V03K  C2016 11 09.24931 02 03 49.61 +12 11 54.4          20.4 RoEV087926
     K16V03K  C2016 11 09.25164 02 03 50.08 +12 11 23.5          20.7 RoEV087926
     K16V03K KC2016 11 09.40818 02 04 20.68 +11 36 17.5          19.0 RoEV087291
     K16V03K KC2016 11 09.40938 02 04 20.93 +11 36 02.0          19.1 RoEV087291
     K16V03K KC2016 11 09.41059 02 04 21.19 +11 35 45.1          19.9 RoEV087291
 
Observer details:
291 LPL/Spacewatch II.  Observer R. S. McMillan.  1.8-m f/2.7 reflector + CCD.
587 Sormano.  Observers A. Fumagalli, A. Testa.  Measurer A. Testa.  0.5-m
    f/6.8 reflector + CCD.
926 Tenagra II Observatory.  Observers M. Schwartz, P. R. Holvorcem.  Measurer
    M. Schwartz.  0.81-m f/7 Ritchey-Chretien + CCD.
G96 Mt. Lemmon Survey.  Observer R. A. Kowalski.  Measurers E. J. Christensen,
    D. C. Fuls, A. R. Gibbs, A. D. Grauer, J. A. Johnson, R. A. Kowalski,
    S. M. Larson, G. J. Leonard, R. G. Matheny, R. L. Seaman, F. C. Shelly.
    1.5-m reflector + 10K CCD.
J95 Great Shefford.  Observer P. Birtwhistle.  0.40-m f/6.0 Schmidt-Cassegrain
    + CCD.
 
Orbital elements:
2016 VK3                                                 Earth MOID = 0.0765 AU
Epoch 2016 July 31.0 TT = JDT 2457600.5                 MPC
M 278.90964              (2000.0)            P               Q
n   0.74641180     Peri.  187.04622     +0.60635971     -0.76469630
a   1.2036043      Node   225.92611     +0.74358547     +0.64246085
e   0.1131807      Incl.   17.67231     +0.28179523     -0.04983592
P   1.32           H   24.8           G   0.15           U   7
Residuals in seconds of arc
161107 G96  0.4-  0.2+    161107 587  0.3-  0.2+    161109 926  0.3-  0.3-
161107 G96  0.2-  0.6+    161107 J95  0.3+  0.2-    161109 926  0.5+  0.6+
161107 G96  0.5+  0.3-    161107 J95  0.2-  0.2-    161109 926  0.9+  1.0+
161107 G96  0.0   0.2+    161107 J95  0.5-  0.1+    161109 291  0.2-  0.4-
161107 G96  0.7+  0.3-    161108 926  0.2+  0.8+    161109 291  0.2-  0.2+
161107 G96  0.6+  0.1-    161108 926  0.2+  0.2+    161109 291  0.0   0.4-
161107 587  0.4-  0.3+    161108 926  0.3+  0.4-

Ephemeris:
2016 VK3                 a,e,i = 1.20, 0.11, 18                  q = 1.0674
Date    TT    R. A. (2000) Decl.     Delta      r     Elong.  Phase     V
2016 10 10    23 39 49.9 +69 32 55   0.1778  1.0874   115.7    55.9    23.3
...
2016 10 25    00 53 12.7 +56 35 01   0.1119  1.0748   133.8    41.9    21.8
...
2016 11 02    01 33 00.1 +37 55 57   0.08654 1.0705   153.7    24.3    20.8
...
2016 11 08    01 58 55.4 +16 53 05   0.07962 1.0685   167.0    12.1    20.2
2016 11 09    02 02 51.2 +13 08 25   0.07982 1.0682   166.3    12.6    20.2
2016 11 10    02 06 40.4 +09 26 00   0.08042 1.0680   164.6    14.2    20.3
...
2016 11 16    02 27 17.8 -10 13 14   0.09156 1.0673   147.7    29.7    21.0
...
2016 11 24    02 49 21.7 -26 46 19   0.1201  1.0681   129.8    45.3    22.1
...
2016 12 09    03 20 07.8 -38 54 41   0.1885  1.0745   113.7    57.1    23.4

A. U. Tomatic                (C) Copyright 2016 MPC           M.P.E.C. 2016-V87




More information about the Iaude mailing list